Location: Chinna Viriv?da
(16.5281°N, 81.0493°E)
Time: 23:33:38
(UTC+00:00)

NOSS 3-4 (C) - Pass Details

Date: 14 April 2026
Orbit: 773 x 1438 km, 63.4° (Epoch: 26 December)

Event Time Altitude Azimuth Distance (km) Brightness Sun altitude
Rises 14:19:17 0° 210° (SSW) 3,337 6.5 -21.4°
Reaches altitude 10° 14:21:46 10° 212° (SSW) 2,359 5.7 -21.9°
Maximum altitude 14:27:03 68° 295° (WNW) 827 3.3 -23.1°
Drops below altitude 10° 14:32:16 10° 19° (NNE) 2,334 5.5 -24.3°
Sets 14:34:44 0° 21° (NNE) 3,298 6.3 -24.9°
